STARLINK-5163, 54054

Orbit data source: Space-Track

STARLINK-5163, 54054 is a payload satellite owned by SpaceX/Seattle (US) in LEO that was launched on Thu, 20 Oct 2022 UTC via an FALCON 9 launch vehicle from the Air Force Eastern Test Range (AFETR). Payload-class satellites include a variety of spacecraft equipped with specific instruments for various scientific and technological missions. These include communications satellites like Starlink; space stations such as the ISS; scientific satellites like the Hubble; Earth observation satellites from companies like Planet Labs, Umbra, and HawkEye 360; GPS; miniature CubeSats for education and research; and military/defense satellites.

Loading next visibility...
Identifier
54054, 2022-136D
Orbit
LEO
Country
Flag of USUS
Related business
Manufacturer
SpaceX/Seattle
Mission
Operational spacecraft
Bus & Motor
STARLINK, Unknown motor
Mass
305 kg wet, ~290 kg dry
Launch date (UTC)
2022-10-20 (3 years ago)
Launch vehicle
FALCON 9
Launch site
Air Force Eastern Test Range (AFETR)
Object type
Payload
Rocket body
Debris
Shape & HBR
Unknown shape, 10.1 m
Radar Cross Section
Large (>1 m²)

Expand to show TLE details & history
Last TLE update: 15 hours ago

TLE from 15 hours ago
0 STARLINK-5163
1 54054U 22136D   25303.93524779 -.00001820  00000-0 -96379-4 0  9992
2 54054  53.2180 206.7378 0001055  90.1743 269.9370 15.08816113167258
Epoch: 2025-10-30T22:26Z
TLE epoch observation values (Epoch: 2025-10-30T22:26:45.409Z)
Latitude
-0.00001°
Longitude
-169.43831°
Altitude
540.715 km
Speed
7.593 km/s
True Right ascension
13h 46m 57s
True Declination
0° 00' 00"
Sunlit
Object was in daylight at epoch
Visualization orbit readout
Latitude
Unknown
Longitude
Unknown
Altitude
Unknown
Speed
Unknown
Apparent Right ascension
Unknown
Apparent Declination
Unknown
Sunlit
N/A
Visualization observer readout
Local Sidereal Time
08:57:09
Azimuth
Unknown
Elevation
Unknown
Doppler factor
Unknown
Orbital elements
Apogee altitude
540.791 km
Perigee altitude
539.331 km
Semi-major axis
6,918.198 km
Eccentricity
0.00011
Inclination
53.218°
RAAN
206.7378°
Arg. of periapsis
90.1743°
True anomaly
269.92491°
Mean anomaly
269.937°
Eccentric anomaly
269.93096°
Mean motion
3.77184 °/min
Orbital period
95.44 mins
BSTAR
-0.000096379
Loading maneuver chart data...
Computing Atmospheric mass density...
Loading historical data...
Loading historical data...
Loading historical data...
Loading historical data...
Loading historical data...
Loading historical data...
Loading historical data...

Documentation

Showing up to 5 results
|